Location: S�tio Afonso Gruber
(26.1760°S, 49.5250°W)
Time: 00:28:37
(UTC+00:00)

Intelsat 5-3 Rocket - Pass Details

Date: 04 October 2020
Orbit: 281 x 6111 km, 23.6° (Epoch: 22 October)

Event Time Altitude Azimuth Distance (km) Brightness Sun altitude
Exits shadow 02:13:35 24° 91° (E) 6,746 7.5 -56.7°
Drops below altitude 10° 02:23:50 10° 93° (E) 8,856 8.2 -57.6°
Sets 02:33:08 0° 93° (E) 10,457 8.7 -58.3°
